TimeMST,TemperatureF,Dew PointF,Humidity,Sea Level PressureIn,VisibilityMPH,Wind Direction,Wind SpeedMPH,Gust SpeedMPH,PrecipitationIn,Events,Conditions,WindDirDegrees,DateUTC
12:15 AM,64.4,32.0,30,30.45,10.0,Calm,Calm,-,N/A,,Clear,0,2013-06-28 07:15:00
12:35 AM,62.6,32.0,32,30.44,10.0,SSE,3.5,-,N/A,,Clear,160,2013-06-28 07:35:00
12:55 AM,62.6,32.0,32,30.44,10.0,SSE,5.8,-,N/A,,Clear,160,2013-06-28 07:55:00
1:15 AM,62.6,32.0,32,30.43,10.0,SSE,6.9,-,N/A,,Clear,150,2013-06-28 08:15:00
1:35 AM,60.8,32.0,34,30.43,10.0,SSE,6.9,-,N/A,,Clear,160,2013-06-28 08:35:00
1:55 AM,59.0,32.0,36,30.43,10.0,SSE,8.1,-,N/A,,Clear,150,2013-06-28 08:55:00
2:15 AM,59.0,32.0,36,30.43,10.0,SSE,8.1,-,N/A,,Clear,150,2013-06-28 09:15:00
2:35 AM,57.2,32.0,38,30.42,10.0,SSE,8.1,-,N/A,,Clear,160,2013-06-28 09:35:00
2:55 AM,57.2,32.0,38,30.42,10.0,SSE,6.9,-,N/A,,Clear,160,2013-06-28 09:55:00
3:15 AM,57.2,32.0,38,30.42,10.0,SSE,6.9,-,N/A,,Clear,160,2013-06-28 10:15:00
3:35 AM,55.4,32.0,41,30.42,10.0,SSE,6.9,-,N/A,,Clear,160,2013-06-28 10:35:00
3:55 AM,55.4,32.0,41,30.42,10.0,SSE,8.1,-,N/A,,Clear,160,2013-06-28 10:55:00
4:15 AM,55.4,32.0,41,30.42,10.0,SSE,6.9,-,N/A,,Clear,160,2013-06-28 11:15:00
4:35 AM,53.6,32.0,44,30.42,10.0,South,5.8,-,N/A,,Clear,170,2013-06-28 11:35:00
4:55 AM,53.6,32.0,44,30.43,10.0,SSE,9.2,-,N/A,,Clear,160,2013-06-28 11:55:00
5:55 AM,55.4,33.8,44,30.43,10.0,SSE,5.8,-,N/A,,Clear,160,2013-06-28 12:55:00
6:15 AM,59.0,35.6,42,30.44,10.0,SSE,4.6,-,N/A,,Clear,160,2013-06-28 13:15:00
6:35 AM,64.4,37.4,37,30.44,10.0,SSE,3.5,-,N/A,,Clear,150,2013-06-28 13:35:00
6:55 AM,69.8,37.4,31,30.44,10.0,Calm,Calm,-,N/A,,Clear,0,2013-06-28 13:55:00
7:15 AM,75.2,35.6,24,30.44,10.0,Calm,Calm,-,N/A,,Clear,0,2013-06-28 14:15:00
7:35 AM,78.8,33.8,20,30.44,10.0,NNE,3.5,-,N/A,,Clear,20,2013-06-28 14:35:00
7:55 AM,80.6,35.6,20,30.44,10.0,Calm,Calm,-,N/A,,Clear,0,2013-06-28 14:55:00
8:15 AM,82.4,35.6,19,30.45,10.0,NNE,5.8,-,N/A,,Clear,30,2013-06-28 15:15:00
8:35 AM,84.2,33.8,16,30.44,10.0,NNE,5.8,-,N/A,,Clear,20,2013-06-28 15:35:00
8:55 AM,86.0,32.0,14,30.44,10.0,NNE,5.8,-,N/A,,Clear,30,2013-06-28 15:55:00
9:15 AM,87.8,32.0,14,30.43,10.0,North,6.9,-,N/A,,Clear,360,2013-06-28 16:15:00
9:35 AM,89.6,32.0,13,30.43,10.0,North,6.9,-,N/A,,Clear,10,2013-06-28 16:35:00
9:55 AM,89.6,32.0,13,30.42,10.0,North,6.9,-,N/A,,Clear,360,2013-06-28 16:55:00
10:15 AM,91.4,28.4,10,30.42,10.0,North,8.1,-,N/A,,Clear,350,2013-06-28 17:15:00
10:35 AM,91.4,28.4,10,30.42,10.0,North,6.9,-,N/A,,Clear,350,2013-06-28 17:35:00
10:55 AM,93.2,26.6,9,30.41,10.0,North,4.6,-,N/A,,Clear,350,2013-06-28 17:55:00
11:15 AM,91.4,28.4,10,30.40,10.0,NE,4.6,-,N/A,,Clear,50,2013-06-28 18:15:00
11:35 AM,91.4,28.4,10,30.40,10.0,North,8.1,-,N/A,,Clear,10,2013-06-28 18:35:00
11:55 AM,89.6,28.4,11,30.41,10.0,North,6.9,-,N/A,,Clear,10,2013-06-28 18:55:00
12:15 PM,82.4,39.2,21,30.41,9.0,ENE,19.6,27.6,0.01,,Scattered Clouds,60,2013-06-28 19:15:00
12:35 PM,82.4,33.8,17,30.45,10.0,NE,19.6,27.6,0.01,,Partly Cloudy,50,2013-06-28 19:35:00
12:55 PM,80.6,37.4,21,30.51,10.0,NE,11.5,34.5,0.01,,Mostly Cloudy,40,2013-06-28 19:55:00
1:15 PM,80.6,35.6,20,30.51,10.0,NW,11.5,-,N/A,,Overcast,310,2013-06-28 20:15:00
1:35 PM,78.8,35.6,21,30.52,10.0,North,6.9,16.1,N/A,,Scattered Clouds,360,2013-06-28 20:35:00
1:55 PM,77.0,37.4,24,30.47,10.0,NNE,16.1,27.6,N/A,,Partly Cloudy,30,2013-06-28 20:55:00
2:15 PM,82.4,32.0,16,30.43,10.0,North,10.4,16.1,N/A,,Partly Cloudy,350,2013-06-28 21:15:00
2:35 PM,84.2,32.0,15,30.43,10.0,North,4.6,-,N/A,,Partly Cloudy,10,2013-06-28 21:35:00
2:55 PM,84.2,30.2,14,30.42,10.0,West,3.5,21.9,N/A,,Partly Cloudy,260,2013-06-28 21:55:00
3:15 PM,84.2,33.8,16,30.41,10.0,NW,5.8,-,N/A,,Clear,320,2013-06-28 22:15:00
3:35 PM,84.2,32.0,15,30.39,10.0,North,8.1,-,N/A,,Clear,10,2013-06-28 22:35:00
3:55 PM,86.0,32.0,14,30.38,10.0,NE,8.1,-,N/A,,Clear,40,2013-06-28 22:55:00
4:15 PM,86.0,28.4,12,30.37,10.0,East,4.6,-,N/A,,Clear,90,2013-06-28 23:15:00
4:35 PM,86.0,30.2,13,30.36,10.0,ENE,5.8,-,N/A,,Clear,70,2013-06-28 23:35:00
4:55 PM,86.0,30.2,13,30.35,10.0,SE,5.8,-,N/A,,Clear,140,2013-06-28 23:55:00
5:15 PM,87.8,30.2,13,30.35,10.0,South,5.8,-,N/A,,Clear,180,2013-06-29 00:15:00
5:35 PM,89.6,30.2,12,30.35,10.0,SSW,11.5,-,N/A,,Clear,200,2013-06-29 00:35:00
5:55 PM,89.6,28.4,11,30.35,10.0,SSW,9.2,-,N/A,,Clear,200,2013-06-29 00:55:00
6:15 PM,84.2,30.2,14,30.36,10.0,WSW,18.4,26.5,N/A,,Clear,250,2013-06-29 01:15:00
6:35 PM,84.2,32.0,15,30.36,10.0,West,11.5,21.9,N/A,,Clear,260,2013-06-29 01:35:00
6:55 PM,82.4,32.0,16,30.36,10.0,West,11.5,-,N/A,,Clear,260,2013-06-29 01:55:00
7:15 PM,82.4,32.0,16,30.37,10.0,West,11.5,-,N/A,,Clear,270,2013-06-29 02:15:00
7:35 PM,80.6,32.0,17,30.37,10.0,WSW,8.1,17.3,N/A,,Clear,250,2013-06-29 02:35:00
7:55 PM,78.8,32.0,18,30.37,10.0,WSW,4.6,-,N/A,,Clear,240,2013-06-29 02:55:00
8:15 PM,75.2,32.0,21,30.37,10.0,West,3.5,-,N/A,,Clear,280,2013-06-29 03:15:00
8:35 PM,73.4,33.8,23,30.37,10.0,Calm,Calm,-,N/A,,Clear,0,2013-06-29 03:35:00
8:55 PM,68.0,35.6,30,30.38,10.0,SSE,5.8,-,N/A,,Clear,160,2013-06-29 03:55:00
9:15 PM,66.2,37.4,35,30.39,10.0,SE,5.8,-,N/A,,Clear,130,2013-06-29 04:15:00
9:35 PM,68.0,37.4,33,30.40,10.0,ESE,3.5,-,N/A,,Clear,120,2013-06-29 04:35:00
9:55 PM,68.0,35.6,30,30.39,10.0,SSE,6.9,-,N/A,,Clear,160,2013-06-29 04:55:00
10:15 PM,68.0,35.6,30,30.38,10.0,South,6.9,-,N/A,,Clear,170,2013-06-29 05:15:00
10:35 PM,64.4,39.2,40,30.39,10.0,SSE,5.8,-,N/A,,Clear,150,2013-06-29 05:35:00
10:55 PM,64.4,39.2,40,30.39,10.0,SE,5.8,-,N/A,,Clear,140,2013-06-29 05:55:00
11:15 PM,66.2,37.4,35,30.38,10.0,SSE,6.9,-,N/A,,Clear,160,2013-06-29 06:15:00
11:35 PM,64.4,39.2,40,30.39,10.0,SE,5.8,-,N/A,,Clear,140,2013-06-29 06:35:00
11:55 PM,64.4,37.4,37,30.38,10.0,SSE,8.1,-,N/A,,Clear,160,2013-06-29 06:55:00